This is the latest recevied weather packets stored in our database for station/object KN6WGU. If no packets are shown the sender has not sent any weather packets the latest 10 day(s).
| Time | Temp. | Humidity | Pressure | Rain* | Wind** | Luminosity | Snow |
|---|---|---|---|---|---|---|---|
| 1787610787 | 22.78° C | 64% | 1009.5 hPa | 0 mm | - | 63 W/m² | - |
| 1787610481 | 22.78° C | 64% | 1009.7 hPa | 0 mm | - | 77 W/m² | - |
| 1787610176 | 22.78° C | 64% | 1009.4 hPa | 0 mm | - | 93 W/m² | - |
| 1787609875 | 22.78° C | 65% | 1009.5 hPa | 0 mm | - | 91 W/m² | - |
| 1787609574 | 22.78° C | 64% | 1009.4 hPa | 0 mm | - | 86 W/m² | - |
| 1787609269 | 23.33° C | 64% | 1009.3 hPa | 0 mm | - | 106 W/m² | - |
| 1787608968 | 22.78° C | 65% | 1009.4 hPa | 0 mm | - | 111 W/m² | - |
| 1787608664 | 22.78° C | 63% | 1009.4 hPa | 0 mm | - | 110 W/m² | - |
| 1787608359 | 23.33° C | 62% | 1009.3 hPa | 0 mm | - | 111 W/m² | - |
| 1787608056 | 23.33° C | 62% | 1009 hPa | 0 mm | - | 99 W/m² | - |
| 1787607752 | 23.33° C | 61% | 1009.3 hPa | 0 mm | - | 82 W/m² | - |
| 1787607449 | 22.78° C | 63% | 1009.1 hPa | 0 mm | - | 61 W/m² | - |
| 1787607145 | 22.78° C | 60% | 1009.1 hPa | 0 mm | - | 71 W/m² | - |
| 1787606845 | 22.78° C | 60% | 1009.1 hPa | 0 mm | - | 63 W/m² | - |
| 1787606543 | 22.78° C | 61% | 1009.4 hPa | 0 mm | - | 87 W/m² | - |
| 1787606238 | 23.33° C | 61% | 1009.3 hPa | 0 mm | - | 82 W/m² | - |
| 1787605937 | 22.78° C | 61% | 1009.1 hPa | 0 mm | - | 55 W/m² | - |
| 1787605636 | 23.33° C | 61% | 1009.2 hPa | 0 mm | - | 53 W/m² | - |
| 1787605332 | 23.33° C | 62% | 1009.3 hPa | 0 mm | - | 52 W/m² | - |
| 1787605028 | 23.33° C | 62% | 1009.3 hPa | 0 mm | - | 76 W/m² | - |
| 1787604726 | 23.89° C | 60% | 1009.4 hPa | 0 mm | - | 60 W/m² | - |
| 1787604421 | 23.89° C | 60% | 1009.2 hPa | 0 mm | - | 105 W/m² | - |
| 1787604116 | 24.44° C | 58% | 1009.2 hPa | 0 mm | - | 473 W/m² | - |
| 1787603815 | 24.44° C | 55% | 1009.3 hPa | 0 mm | - | 457 W/m² | - |
| 1787603510 | 25° C | 56% | 1009.2 hPa | 0 mm | - | 469 W/m² | - |
* Rain latest hour (hover to see other rain measurements)
** Current wind speed in m/s (hover to see current wind gust speed)